La Porte, IN

2:19 AM CDT on July 23, 2017 (GMT -0500)
La Porte Municipal

Weather History for KPPO - November, 2013

Change the Weather History Date:

Thursday, November 7, 2013

  Actual Average (KSBN) Record (KSBN)
Temperature  
Mean Temperature 38 °F -  
Max Temperature 45 °F 50 °F 74 °F (1916)
Min Temperature 31 °F 35 °F 16 °F (1991)
Degree Days  
Heating Degree Days 27    
Moisture  
Dew Point 28 °F    
Average Humidity 70    
Maximum Humidity 93    
Minimum Humidity 47    
Precipitation  
Precipitation 0.00 in - - ()
Sea Level Pressure  
Sea Level Pressure 30.19 in    
Wind  
Wind Speed 10 mph (West)    
Max Wind Speed 18 mph    
Max Gust Speed 24 mph    
Visibility 10 miles    
Events Rain    
Averages and records for this station are not official NWS values.
T = Trace of Precipitation, MM = Missing Value Source: NWS Daily Summary

Daily Weather History Graph

Daily Weather History Graph

Search for Another Location

Airport or City:

Trip Planner

Search our weather history database for the weather conditions in past years. The results will help you decide how hot, cold, wet, or windy it might be!

Date:

Astronomy

Nov. 07, 2013 Rise Set
Actual Time 6:26 AM CST 4:34 PM CST
Civil Twilight 5:57 AM CST 5:03 PM CST
Nautical Twilight 5:23 AM CST 5:36 PM CST
Astronomical Twilight 4:51 AM CST 6:09 PM CST
Moon 10:35 AM CST (11/7) 8:44 PM CST (11/7)
Length of Visible Light 11h 06m
Length of Day
10h 08m
Waxing Crescent, 23% of the Moon is Illuminated
Nov 7
Waxing Crescent
Nov 9
First Quarter
Nov 17
Full
Nov 25
Last Quarter
Dec 2
New

Hourly Weather History & Observations

Time (CST) Temp. Windchill Dew Point Humidity Pressure Visibility Wind Dir Wind Speed Gust Speed Precip Events Conditions
12:15 AM 37.8 °F 29.8 °F 25.7 °F 62% 30.13 in 10.0 mi NW 12.7 mph 17.3 mph N/A   Scattered Clouds
12:35 AM 37.0 °F 29.3 °F 25.7 °F 64% 30.13 in 10.0 mi NW 11.5 mph 18.4 mph N/A   Scattered Clouds
12:55 AM 36.7 °F 28.9 °F 26.1 °F 65% 30.14 in 10.0 mi NW 11.5 mph 18.4 mph N/A   Clear
1:15 AM 36.5 °F 28.2 °F 26.4 °F 67% 30.14 in 10.0 mi NW 12.7 mph 16.1 mph N/A   Clear
1:35 AM 36.1 °F 28.2 °F 26.2 °F 67% 30.14 in 10.0 mi NW 11.5 mph - N/A   Scattered Clouds
1:55 AM 35.8 °F 28.8 °F 25.9 °F 67% 30.15 in 10.0 mi NNW 9.2 mph - N/A   Scattered Clouds
2:15 AM 35.6 °F 28.6 °F 25.7 °F 67% 30.15 in 10.0 mi NNW 9.2 mph - N/A   Clear
2:35 AM 35.4 °F 28.4 °F 25.9 °F 68% 30.16 in 10.0 mi NW 9.2 mph - N/A   Clear
2:55 AM 35.8 °F 28.8 °F 25.7 °F 67% 30.16 in 10.0 mi NW 9.2 mph 17.3 mph N/A   Scattered Clouds
3:15 AM 35.6 °F 28.6 °F 25.7 °F 67% 30.16 in 10.0 mi NW 9.2 mph - N/A   Scattered Clouds
3:35 AM 35.4 °F 28.4 °F 25.5 °F 67% 30.16 in 10.0 mi NW 9.2 mph - N/A   Scattered Clouds
3:55 AM 35.6 °F 28.0 °F 25.7 °F 67% 30.17 in 10.0 mi NNW 10.4 mph 16.1 mph N/A   Scattered Clouds
4:15 AM 35.1 °F 27.4 °F 25.9 °F 69% 30.17 in 10.0 mi NW 10.4 mph - N/A   Scattered Clouds
4:35 AM 35.1 °F 30.1 °F 25.5 °F 68% 30.18 in 10.0 mi NW 5.8 mph - N/A   Scattered Clouds
4:55 AM 35.6 °F 32.8 °F 25.2 °F 66% 30.18 in 10.0 mi WNW 3.5 mph - N/A   Scattered Clouds
5:15 AM 35.2 °F 30.3 °F 25.5 °F 68% 30.19 in 10.0 mi WNW 5.8 mph - N/A   Scattered Clouds
5:35 AM 35.2 °F 32.4 °F 26.4 °F 70% 30.19 in 10.0 mi WNW 3.5 mph - N/A   Clear
5:55 AM 35.1 °F 32.2 °F 26.8 °F 72% 30.20 in 10.0 mi WNW 3.5 mph - N/A   Clear
6:15 AM 34.2 °F 31.2 °F 27.3 °F 76% 30.20 in 10.0 mi West 3.5 mph - N/A   Clear
6:35 AM 33.3 °F 28.9 °F 27.7 °F 80% 30.20 in 10.0 mi WSW 4.6 mph - N/A   Clear
6:55 AM 32.7 °F 27.3 °F 28.4 °F 84% 30.21 in 10.0 mi West 5.8 mph - N/A   Clear
7:15 AM 32.9 °F 28.5 °F 29.1 °F 86% 30.21 in 10.0 mi West 4.6 mph - N/A   Clear
7:35 AM 33.8 °F 28.6 °F 29.1 °F 83% 30.22 in 10.0 mi West 5.8 mph - N/A   Clear
7:55 AM 34.7 °F 28.1 °F 29.3 °F 81% 30.21 in 10.0 mi West 8.1 mph - N/A   Clear
8:15 AM 36.5 °F 29.7 °F 30.4 °F 78% 30.22 in 10.0 mi West 9.2 mph - N/A   Clear
8:35 AM 37.9 °F 30.9 °F 30.7 °F 75% 30.23 in 10.0 mi West 10.4 mph - N/A   Clear
8:55 AM 39.4 °F 32.7 °F 30.6 °F 71% 30.22 in 10.0 mi West 10.4 mph - N/A   Clear
9:15 AM 40.3 °F 33.9 °F 29.5 °F 65% 30.22 in 10.0 mi West 10.4 mph 17.3 mph N/A   Clear
9:35 AM 41.0 °F 34.7 °F 28.4 °F 61% 30.23 in 10.0 mi West 10.4 mph 17.3 mph N/A   Clear
9:55 AM 41.0 °F 36.4 °F 24.8 °F 53% 30.24 in 10.0 mi WNW 6.9 mph 16.1 mph N/A   Clear
10:15 AM 41.9 °F 35.9 °F 26.8 °F 55% 30.23 in 10.0 mi West 10.4 mph - N/A   Clear
10:35 AM 42.1 °F 37.1 °F 26.2 °F 53% 30.23 in 10.0 mi WNW 8.1 mph 18.4 mph N/A   Clear
10:55 AM 43.0 °F 38.2 °F 27.9 °F 55% 30.23 in 10.0 mi NW 8.1 mph 17.3 mph N/A   Clear
11:15 AM 43.2 °F 37.0 °F 26.8 °F 52% 30.22 in 10.0 mi West 11.5 mph 19.6 mph N/A   Clear
11:35 AM 44.1 °F 38.1 °F 25.7 °F 49% 30.21 in 10.0 mi NW 11.5 mph 18.4 mph N/A   Clear
11:55 AM 44.2 °F 39.7 °F 26.1 °F 49% 30.20 in 10.0 mi WNW 8.1 mph - N/A   Clear
12:15 PM 45.1 °F 38.4 °F 27.7 °F 50% 30.19 in 10.0 mi WSW 15.0 mph 19.6 mph N/A   Scattered Clouds
12:35 PM 44.6 °F 37.8 °F 27.3 °F 51% 30.19 in 10.0 mi West 15.0 mph 23.0 mph N/A   Scattered Clouds
12:55 PM 44.2 °F 36.4 °F 25.7 °F 48% 30.19 in 10.0 mi West 18.4 mph 24.2 mph N/A   Scattered Clouds
1:15 PM 45.0 °F 40.1 °F 25.7 °F 47% 30.18 in 10.0 mi WNW 9.2 mph 17.3 mph N/A   Scattered Clouds
1:35 PM 44.1 °F 38.1 °F 26.4 °F 50% 30.18 in 10.0 mi West 11.5 mph - N/A   Mostly Cloudy
1:55 PM 43.9 °F 37.2 °F 27.5 °F 53% 30.17 in 10.0 mi West 13.8 mph - N/A   Mostly Cloudy
2:15 PM 42.8 °F 35.8 °F 28.4 °F 57% 30.17 in 10.0 mi WSW 13.8 mph - N/A   Overcast
2:35 PM 42.1 °F 35.7 °F 28.9 °F 60% 30.17 in 10.0 mi West 11.5 mph 19.6 mph N/A   Overcast
2:55 PM 41.9 °F 35.0 °F 29.7 °F 62% 30.17 in 10.0 mi West 12.7 mph 16.1 mph N/A   Overcast
3:15 PM 41.5 °F 33.2 °F 28.9 °F 61% 30.17 in 10.0 mi West 17.3 mph 21.9 mph N/A   Overcast
3:35 PM 40.6 °F 33.0 °F 30.0 °F 66% 30.17 in 10.0 mi West 13.8 mph 18.4 mph N/A   Overcast
3:55 PM 40.3 °F 34.9 °F 29.8 °F 66% 30.17 in 10.0 mi WSW 8.1 mph - N/A   Overcast
4:35 PM 40.1 °F 34.7 °F 30.7 °F 69% 30.17 in 10.0 mi WSW 8.1 mph - N/A   Overcast
4:55 PM 39.9 °F 34.5 °F 30.2 °F 68% 30.17 in 10.0 mi WSW 8.1 mph - N/A   Overcast
5:15 PM 39.7 °F 34.9 °F 30.6 °F 70% 30.17 in 10.0 mi WSW 6.9 mph - N/A   Overcast
5:35 PM 39.7 °F 34.3 °F 30.7 °F 70% 30.18 in 10.0 mi West 8.1 mph - N/A Rain Light Rain
5:55 PM 40.1 °F 33.2 °F 30.9 °F 70% 30.19 in 10.0 mi West 11.5 mph - N/A   Overcast
6:15 PM 39.6 °F 35.4 °F 31.1 °F 72% 30.19 in 10.0 mi WNW 5.8 mph - N/A   Mostly Cloudy
6:35 PM 38.5 °F 34.1 °F 30.2 °F 72% 30.19 in 10.0 mi WNW 5.8 mph - N/A   Scattered Clouds
6:55 PM 37.6 °F 31.6 °F 29.5 °F 73% 30.20 in 10.0 mi WNW 8.1 mph - N/A   Clear
7:15 PM 36.9 °F 31.4 °F 29.7 °F 75% 30.19 in 10.0 mi West 6.9 mph - N/A   Clear
7:35 PM 35.6 °F 29.9 °F 30.0 °F 80% 30.20 in 10.0 mi West 6.9 mph - N/A   Scattered Clouds
7:55 PM 34.7 °F 29.6 °F 30.2 °F 84% 30.19 in 10.0 mi WSW 5.8 mph - N/A   Scattered Clouds
8:15 PM 35.1 °F 28.6 °F 31.5 °F 87% 30.20 in 10.0 mi West 8.1 mph - N/A   Scattered Clouds
8:35 PM 34.7 °F 27.5 °F 30.9 °F 86% 30.21 in 10.0 mi West 9.2 mph - N/A   Mostly Cloudy
8:55 PM 33.8 °F 27.7 °F 30.6 °F 88% 30.21 in 10.0 mi West 6.9 mph - N/A   Scattered Clouds
9:15 PM 33.1 °F 26.9 °F 30.4 °F 90% 30.21 in 10.0 mi WSW 6.9 mph - N/A   Scattered Clouds
9:35 PM 32.9 °F 25.9 °F 30.6 °F 91% 30.21 in 10.0 mi WSW 8.1 mph - N/A   Mostly Cloudy
9:55 PM 32.0 °F 26.4 °F 30.0 °F 92% 30.21 in 10.0 mi WSW 5.8 mph - N/A   Mostly Cloudy
10:15 PM 32.0 °F 25.6 °F 30.2 °F 93% 30.21 in 10.0 mi WSW 6.9 mph - N/A   Scattered Clouds
10:35 PM 32.0 °F 26.4 °F 29.7 °F 91% 30.21 in 10.0 mi WSW 5.8 mph - N/A   Mostly Cloudy
10:55 PM 32.5 °F 26.2 °F 30.2 °F 91% 30.21 in 10.0 mi WSW 6.9 mph - N/A   Overcast
11:15 PM 32.5 °F 26.2 °F 29.8 °F 90% 30.20 in 10.0 mi WSW 6.9 mph - N/A   Mostly Cloudy
11:35 PM 31.8 °F 24.6 °F 29.1 °F 90% 30.21 in 10.0 mi WSW 8.1 mph - N/A   Mostly Cloudy
11:55 PM 31.6 °F 23.7 °F 29.3 °F 91% 30.21 in 10.0 mi WSW 9.2 mph - N/A   Scattered Clouds